TimeEST,TemperatureF,Dew PointF,Humidity,Sea Level PressureIn,VisibilityMPH,Wind Direction,Wind SpeedMPH,Gust SpeedMPH,PrecipitationIn,Events,Conditions,WindDirDegrees,DateUTC
12:53 AM,70.0,68.0,93,30.05,10.0,Calm,Calm,-,N/A,,Scattered Clouds,0,2013-01-17 05:53:00
1:53 AM,71.1,66.0,84,30.04,10.0,SE,5.8,-,N/A,,Mostly Cloudy,140,2013-01-17 06:53:00
2:53 AM,71.1,66.9,87,30.05,10.0,Calm,Calm,-,N/A,,Scattered Clouds,0,2013-01-17 07:53:00
3:53 AM,70.0,66.9,90,30.04,10.0,Calm,Calm,-,N/A,,Scattered Clouds,0,2013-01-17 08:53:00
4:53 AM,69.1,66.9,93,30.04,10.0,Calm,Calm,-,N/A,,Scattered Clouds,0,2013-01-17 09:53:00
5:53 AM,70.0,68.0,93,30.05,10.0,Calm,Calm,-,N/A,,Scattered Clouds,0,2013-01-17 10:53:00
6:53 AM,70.0,68.0,93,30.06,10.0,Calm,Calm,-,N/A,,Scattered Clouds,0,2013-01-17 11:53:00
7:53 AM,72.0,69.1,91,30.08,10.0,SE,3.5,-,N/A,,Scattered Clouds,140,2013-01-17 12:53:00
8:53 AM,75.0,70.0,84,30.09,10.0,SSE,6.9,-,N/A,,Scattered Clouds,160,2013-01-17 13:53:00
9:53 AM,78.1,68.0,71,30.10,10.0,SSE,12.7,18.4,N/A,,Mostly Cloudy,160,2013-01-17 14:53:00
10:53 AM,78.1,69.1,74,30.09,10.0,SSE,11.5,-,N/A,,Mostly Cloudy,150,2013-01-17 15:53:00
11:43 AM,78.8,68.0,69,30.07,10.0,South,12.7,-,N/A,,Mostly Cloudy,170,2013-01-17 16:43:00
11:49 AM,77.0,68.0,74,30.07,10.0,South,13.8,18.4,N/A,,Mostly Cloudy,180,2013-01-17 16:49:00
11:53 AM,77.0,69.1,76,30.07,10.0,SW,11.5,-,0.00,Rain,Light Rain,220,2013-01-17 16:53:00
12:10 PM,71.6,66.2,83,30.07,4.0,WSW,10.4,19.6,0.00,Rain,Rain,240,2013-01-17 17:10:00
12:25 PM,71.6,68.0,88,30.07,5.0,SW,6.9,-,0.06,Rain,Light Rain,220,2013-01-17 17:25:00
12:37 PM,71.6,68.0,88,30.06,2.5,SW,8.1,-,0.09,Rain,Rain,220,2013-01-17 17:37:00
12:53 PM,71.1,68.0,90,30.06,2.5,SW,12.7,-,0.11,Rain,Light Rain,230,2013-01-17 17:53:00
1:09 PM,71.6,69.8,94,30.05,5.0,SW,8.1,-,0.01,Rain,Light Rain,230,2013-01-17 18:09:00
1:19 PM,71.6,68.0,88,30.04,3.0,West,8.1,-,0.01,Rain,Light Rain,260,2013-01-17 18:19:00
1:53 PM,71.1,69.1,93,30.01,7.0,SE,5.8,-,0.02,,Overcast,140,2013-01-17 18:53:00
2:53 PM,73.0,69.1,87,30.01,10.0,SSE,3.5,-,N/A,,Mostly Cloudy,160,2013-01-17 19:53:00
3:53 PM,75.0,68.0,79,30.01,10.0,Variable,4.6,-,N/A,,Mostly Cloudy,0,2013-01-17 20:53:00
4:53 PM,77.0,66.9,71,30.01,10.0,SW,8.1,-,N/A,,Scattered Clouds,230,2013-01-17 21:53:00
5:53 PM,77.0,63.0,62,30.02,10.0,WSW,8.1,-,N/A,,Scattered Clouds,250,2013-01-17 22:53:00
6:53 PM,73.9,64.9,73,30.05,10.0,West,9.2,-,N/A,,Partly Cloudy,260,2013-01-17 23:53:00
7:53 PM,68.0,61.0,78,30.09,10.0,NW,13.8,25.3,N/A,,Mostly Cloudy,320,2013-01-18 00:53:00
8:53 PM,64.0,57.9,80,30.12,10.0,NW,9.2,-,N/A,,Scattered Clouds,310,2013-01-18 01:53:00
9:53 PM,64.0,55.0,73,30.12,10.0,NW,8.1,-,N/A,,Scattered Clouds,310,2013-01-18 02:53:00
10:53 PM,63.0,55.0,75,30.11,10.0,NW,8.1,-,N/A,,Scattered Clouds,320,2013-01-18 03:53:00
11:53 PM,62.1,55.0,78,30.12,10.0,NW,11.5,21.9,N/A,,Scattered Clouds,310,2013-01-18 04:53:00